Flag for Estonia Weather past 2 weeks in Tallinn, Estonia

Now
39 °F

Overcast.


Feels Like: 33 °F
Forecast: 37 / 47 °F
Wind: 9 mph from Northwest

Location: Tallinn

Current Time: Apr 18, 2015 at 7:48:09 PM

Latest Report: Apr 18, 2015 at 7:20 PM


Visibility: N/A

Pressure: 29.95 "Hg

Humidity: 75%

Dew point: 32 °F

Location of TallinnLocation

Historic Weather in Tallinn — Graph

°F

Tallinn temperature yesterday

Maximum temperature yesterday: 43 °F (at 2:50 PM)
Minimum temperature yesterday: 36 °F (at 4:20 AM)
Average temperature yesterday: 38 °F

Past Weeks' High & Low Weather Summary

 TemperatureHumidityPressure
High59 °F (Apr 11, 2:50 PM)100% (Apr 3, 9:50 PM)30.30 "Hg (Apr 3, 9:50 PM)
Low30 °F (Apr 6, 6:50 AM)22% (Apr 9, 2:50 PM)29.21 "Hg (Apr 16, 4:50 AM)
Average40 °F77%29.82 "Hg
* Reported Apr 3 6:20 PM — Apr 18 6:20 PM, Tallinn, Weather by CustomWeather, © 2015

Note: Actual official high and low records may vary slightly from our data, if they occured in-between our weather recording intervals... More about our weather records

Advertising

Tallinn weather history for previous 24 hours

 ConditionsComfort  
Time TempWeatherWind HumidityBarometerVisibility
6:20 PM
Sat, Apr 18
39 °FOvercast.7 mph70%29.95 "HgN/A
5:50 PM39 °FOvercast.8 mph75%29.95 "HgN/A
5:20 PM39 °FOvercast.9 mph75%29.95 "HgN/A
4:50 PM41 °FOvercast.9 mph66%29.95 "HgN/A
4:20 PM41 °FOvercast.8 mph66%29.95 "HgN/A
3:50 PM41 °FOvercast.10 mph61%29.95 "HgN/A
3:20 PM43 °FPartly sunny.9 mph57%29.95 "HgN/A
2:50 PM43 °FPartly sunny.8 mph61%29.95 "HgN/A
2:20 PM41 °FPartly sunny.9 mph66%29.95 "HgN/A
1:50 PM41 °FPartly sunny.9 mph70%29.95 "HgN/A
1:20 PM43 °FPartly sunny.10 mph53%29.95 "HgN/A
12:50 PM43 °FPartly sunny.12 mph49%29.95 "HgN/A
12:20 PM43 °FScattered clouds.8 mph53%29.98 "HgN/A
11:50 AM43 °FPassing clouds.7 mph61%29.95 "HgN/A
11:20 AM41 °FPassing clouds.9 mph66%29.98 "HgN/A
10:50 AM41 °FPassing clouds.9 mph66%29.95 "HgN/A
10:20 AM41 °FPassing clouds.9 mph57%29.95 "HgN/A
9:50 AM41 °FPassing clouds.8 mph61%29.95 "HgN/A
9:20 AM39 °FScattered clouds.9 mph70%29.95 "HgN/A
8:50 AM39 °FScattered clouds.9 mph75%29.95 "HgN/A
8:20 AM37 °FPassing clouds.8 mph81%29.95 "HgN/A
7:50 AM37 °FPassing clouds.7 mph87%29.95 "HgN/A
7:20 AM37 °FPassing clouds.6 mph81%29.95 "HgN/A
6:50 AM37 °FPassing clouds.5 mph87%29.95 "HgN/A
6:20 AM37 °FPassing clouds.7 mph87%29.95 "HgN/A
5:50 AM37 °FOvercast.6 mph87%29.95 "HgN/A
5:20 AM37 °FClear.6 mph81%29.95 "Hg10 mi
4:50 AM37 °FClear.6 mph81%29.95 "Hg10 mi
4:20 AM37 °FPassing clouds.6 mph81%29.95 "HgN/A
3:50 AM39 °FPassing clouds.5 mph75%29.95 "HgN/A
3:20 AM39 °FPassing clouds.8 mph75%29.95 "HgN/A
2:50 AM39 °FClear.8 mph75%29.95 "Hg10 mi
2:20 AM39 °FPassing clouds.9 mph81%29.95 "HgN/A
1:50 AM41 °FClear.10 mph76%29.95 "Hg10 mi
1:20 AM41 °FPassing clouds.10 mph76%29.95 "HgN/A
12:50 AM39 °FPassing clouds.10 mph81%29.92 "HgN/A
12:20 AM39 °FPassing clouds.9 mph81%29.92 "HgN/A
11:50 PM
Fri, Apr 17
39 °FPassing clouds.9 mph81%29.92 "HgN/A
11:20 PM37 °FPassing clouds.8 mph93%29.92 "HgN/A
10:50 PM37 °FPassing clouds.6 mph87%29.92 "HgN/A
10:20 PM37 °FPassing clouds.7 mph93%29.92 "HgN/A
9:50 PM37 °FPassing clouds.7 mph87%29.89 "HgN/A
9:20 PM37 °FScattered clouds.7 mph87%29.89 "HgN/A
8:50 PM37 °FPassing clouds.5 mph87%29.86 "HgN/A
8:20 PM39 °FPartly sunny.7 mph81%29.86 "HgN/A
7:50 PM39 °FScattered clouds.8 mph81%29.83 "HgN/A
7:20 PM39 °FScattered clouds.9 mph81%29.83 "HgN/A
Weather by CustomWeather, © 2015

See weather overviewHow to use our weather pages